[[{"header":{"parameterUnit":"m.s-1","parameterCategory":1,"la1":30.2991,"la2":30.254,"lo1":-89.0895,"lo2":-89.0444,"dx":0.0017,"dy":0.0017,"nx":28,"ny":28,"refTime":"2023-01-13T09:00:00:Z","depth":0,"parameterNumber":2,"parameterNumberName":"U-component_of_WINDS"},"data":[0,0,0,0,0,0,0,0,0,0,0,0,0,0,0,0,0,0,0,0,0,0,0,0,0,0,0,0,0,0,0,0,0,0,0,0,0,0,0,0,0,0,0,0,0,0,0,0,0,0,0,0,0,0,0,0,0,0,1.6608,1.6608,0,1.6631,1.6632,1.6632,1.6595,1.6594,1.6593,1.6592,1.6615,1.6617,1.6619,0,0,0,0,0,0,0,0,0,0,0,0,0,1.6531,1.6532,1.6608,1.6608,1.6608,1.6631,1.6632,1.6632,1.6596,1.6594,1.6592,1.6591,1.6615,1.6617,1.6619,0,0,0,0,0,0,0,0,0,0,0,0,0,1.656,1.6533,1.6607,1.6593,1.6592,1.6631,1.6632,1.6632,1.6596,1.6594,1.6592,1.659,1.6614,1.6616,1.6619,1.6674,0,0,1.6627,1.6629,0,0,0,0,0,0,0,0,1.6559,1.6563,1.6595,1.6594,1.6593,1.6608,1.6613,1.6646,1.6596,1.6594,1.6592,1.6589,1.6614,1.6617,1.6626,1.6675,1.6676,1.6628,1.6629,1.663,1.6631,0,0,0,0,0,0,0,1.6557,1.6562,1.6617,1.6595,1.6594,1.6585,1.6587,1.6619,1.6615,1.6594,1.6592,1.6595,1.6613,1.6623,1.6626,1.6676,1.6628,1.663,1.6632,1.6633,1.6773,1.6775,0,0,0,0,0,0,1.6556,1.656,1.6616,1.6618,1.6571,1.6588,1.659,1.6605,1.6614,1.6614,1.6597,1.6593,1.6619,1.6623,1.6627,1.6692,1.663,1.6633,1.6635,1.6771,1.6774,1.6776,0,0,0,0,0,0,1.6555,1.6562,1.6615,1.6588,1.6594,1.6591,1.6608,1.6607,1.6616,1.6616,1.6615,1.6607,1.6618,1.6623,1.6663,1.6692,1.6634,1.6637,1.6769,1.6772,1.6775,1.6823,0,0,0,0,0,0,1.6553,1.6561,1.6582,1.6589,1.6596,1.6651,1.661,1.6609,1.6621,1.6617,1.6626,1.6625,1.6617,1.6659,1.6665,1.6695,1.6639,1.6766,1.677,1.6774,1.6818,1.6827,1.6834,0,0,0,0,0,1.655,1.6594,1.6583,1.659,1.6622,1.6653,1.6657,1.6646,1.6624,1.6644,1.6645,1.6625,1.6688,1.6663,1.667,1.6701,1.6764,1.6769,1.6774,1.6815,1.6825,1.6834,0,0,0,0,0,0,1.6589,1.6594,1.6583,1.663,1.6641,1.6647,1.6672,1.6658,1.6675,1.6671,1.6657,1.6659,1.6702,1.6706,1.6678,1.6755,1.6722,1.6729,1.6751,1.6761,1.6769,1.6767,1.6641,0,0,0,0,0,1.6604,1.6629,1.6632,1.6673,1.668,1.6675,1.6688,1.668,1.6691,1.6695,1.6698,1.6709,1.6732,1.6747,1.6767,1.6819,1.6821,1.6844,1.6852,1.6858,1.6864,1.6892,1.6903,1.6792,1.6792,1.6792,0,0,1.6633,1.6639,1.6655,1.6681,1.6689,1.6715,1.6679,1.6708,1.6728,1.6699,1.6737,1.674,1.6752,1.6799,1.6819,1.6803,1.6895,1.6864,1.687,1.6871,1.6898,1.6909,1.6918,1.6795,1.6794,1.6794,0,0,1.67,1.6707,1.6743,1.6752,1.6764,1.6761,1.677,1.6778,1.6779,1.6818,1.6797,1.682,1.6859,1.6869,1.6879,1.6952,1.6935,1.6959,1.7,1.7028,1.7037,1.7045,1.7071,1.7081,1.6965,1.6965,1.6965,0,1.6735,1.6773,1.6763,1.6794,1.6806,1.6783,1.6819,1.6828,1.6847,1.6856,1.6838,1.6887,1.6893,1.6942,1.696,1.6969,1.6979,1.6957,1.7037,1.7044,1.7051,1.7076,1.7086,1.6968,1.6967,1.6967,1.6967,0,1.6816,1.6843,1.6871,1.689,1.6905,1.6939,1.6934,1.6951,1.6941,1.6941,1.6981,1.6988,1.701,1.7021,1.7012,1.7069,1.7059,1.7039,1.7005,1.7065,1.7088,1.7098,1.6972,1.6971,1.697,1.6969,0,0,1.6906,1.6921,1.6931,1.694,1.6953,1.6974,1.7007,1.703,1.7045,1.7059,1.7086,1.7121,1.7103,1.7115,1.7107,1.7131,1.7189,1.7108,1.7109,1.7123,1.7254,1.7268,1.7279,1.7179,1.718,1.7182,1.7253,0,1.6973,1.703,1.7022,1.7077,1.7102,1.7082,1.7111,1.7122,1.7123,1.7145,1.7146,1.7171,1.7145,1.7152,1.7176,1.7177,1.7215,1.7172,1.7204,1.7205,1.7201,1.7291,1.7306,1.7372,1.7262,1.7263,1.7264,0,1.7057,1.7076,1.7134,1.7144,1.7155,1.7181,1.7201,1.7223,1.7236,1.7235,1.7249,1.7237,1.727,1.7238,1.7284,1.7255,1.7268,1.7271,1.7273,1.7275,1.7238,1.7295,1.7393,1.7403,1.7278,1.7277,1.7276,0,1.7118,1.7157,1.7197,1.7205,1.7218,1.7237,1.7244,1.7255,1.727,1.7288,1.7297,1.7319,1.7331,1.7348,1.7343,1.7319,1.7391,1.7357,1.7391,1.7391,1.7406,1.7405,1.7507,1.7415,1.7415,1.7415,1.7415,0,1.7192,1.7228,1.7224,1.7248,1.7289,1.728,1.732,1.7324,1.7335,1.736,1.7344,1.7367,1.7359,1.7383,1.7379,1.7418,1.7424,1.7424,1.7422,1.7425,1.7425,1.7432,1.7427,1.7417,1.7417,1.7416,1.7416,0,1.7266,1.7264,1.7306,1.7316,1.732,1.7349,1.7357,1.7381,1.7381,1.7413,1.742,1.7421,1.7448,1.7445,1.7475,1.7472,1.7521,1.7514,1.7517,1.7515,1.7549,1.7546,1.7659,1.7673,1.7573,1.7574,1.7574,0,1.7313,1.7341,1.7354,1.737,1.7378,1.7404,1.7419,1.7412,1.7429,1.7447,1.7468,1.7494,1.7514,1.7559,1.7562,1.7585,1.7579,1.7617,1.7582,1.7584,1.7579,1.7577,1.758,1.7623,1.7624,1.7625,1.7626,0,1.7398,1.7396,1.7418,1.7441,1.746,1.7477,1.7493,1.7507,1.7502,1.7522,1.755,1.7566,1.7597,1.7623,1.7646,1.7653,1.7639,1.7637,1.7646,1.7649,1.7649,1.765,1.7535,1.7634,1.7634,1.7633,1.7633,1.7632,1.7459,1.7483,1.7497,1.7523,1.7534,1.755,1.7572,1.7576,1.76,1.7625,1.762,1.7652,1.7666,1.7695,1.7704,1.7729,1.7715,1.7728,1.7731,1.7735,1.7739,1.7646,1.7733,1.7733,1.7733,1.7733,1.7732,0,1.7542,1.7551,1.7575,1.7598,1.7619,1.7605,1.7623,1.7641,1.7669,1.7684,1.7704,1.7737,1.7763,1.7769,1.7794,1.7813,1.7807,1.782,1.7818,1.782,1.7749,1.7739,1.7824,1.7824,1.7824,1.7824,1.7824,1.7824,1.7588,1.7628,1.7629,1.7674,1.7682,1.7714,1.7725,1.774,1.7751,1.7789,1.781,1.7815,1.7826,1.7852,1.7875,1.7876,1.7886,1.7901,1.79,1.7834,1.7825,1.7816,1.7806,1.7903,1.7903,1.7968,1.7968,1.7969]},{"header":{"parameterUnit":"m.s-1","parameterCategory":1,"la1":30.2991,"la2":30.254,"lo1":-89.0895,"lo2":-89.0444,"dx":0.0017,"dy":0.0017,"nx":28,"ny":28,"refTime":"2023-01-13T09:00:00:Z","depth":0,"parameterNumber":3,"parameterNumberName":"V-component_of_WINDS"},"data":[0,0,0,0,0,0,0,0,0,0,0,0,0,0,0,0,0,0,0,0,0,0,0,0,0,0,0,0,0,0,0,0,0,0,0,0,0,0,0,0,0,0,0,0,0,0,0,0,0,0,0,0,0,0,0,0,0,0,-4.1859,-4.186,0,-4.2033,-4.2035,-4.2037,-4.2025,-4.2023,-4.202,-4.2018,-4.2194,-4.2201,-4.2208,0,0,0,0,0,0,0,0,0,0,0,0,0,-4.1513,-4.1519,-4.1858,-4.1861,-4.1863,-4.2033,-4.2035,-4.2038,-4.2026,-4.2023,-4.202,-4.2017,-4.2192,-4.2201,-4.2209,0,0,0,0,0,0,0,0,0,0,0,0,0,-4.1673,-4.1521,-4.1858,-4.1877,-4.1881,-4.2032,-4.2035,-4.2038,-4.2026,-4.2023,-4.2019,-4.2015,-4.2189,-4.22,-4.221,-4.2353,0,0,-4.2243,-4.2247,0,0,0,0,0,0,0,0,-4.1663,-4.1685,-4.1872,-4.1876,-4.1881,-4.2004,-4.1978,-4.2144,-4.2027,-4.1971,-4.2018,-4.2013,-4.2134,-4.2149,-4.219,-4.2361,-4.2369,-4.2244,-4.225,-4.2255,-4.2258,0,0,0,0,0,0,0,-4.1652,-4.1678,-4.1927,-4.1875,-4.188,-4.1877,-4.1895,-4.2009,-4.2072,-4.1976,-4.1975,-4.1996,-4.2135,-4.218,-4.2194,-4.2371,-4.2243,-4.2253,-4.2259,-4.2264,-4.2668,-4.2672,0,0,0,0,0,0,-4.1637,-4.1668,-4.1922,-4.1933,-4.176,-4.1886,-4.1907,-4.1968,-4.2071,-4.2083,-4.1999,-4.1995,-4.2163,-4.2182,-4.22,-4.2374,-4.2255,-4.2265,-4.2271,-4.2663,-4.2668,-4.2673,0,0,0,0,0,0,-4.163,-4.166,-4.1915,-4.1801,-4.1833,-4.1896,-4.1965,-4.1973,-4.2018,-4.2089,-4.2099,-4.2033,-4.2161,-4.2185,-4.2315,-4.2379,-4.2269,-4.2279,-4.2658,-4.2665,-4.2671,-4.2722,0,0,0,0,0,0,-4.162,-4.1657,-4.1713,-4.1802,-4.1839,-4.2028,-4.1969,-4.198,-4.2036,-4.2032,-4.2123,-4.2135,-4.216,-4.2299,-4.2326,-4.2392,-4.2287,-4.2653,-4.2661,-4.2669,-4.2714,-4.2729,-4.2741,0,0,0,0,0,-4.1608,-4.172,-4.1716,-4.1746,-4.191,-4.2031,-4.2052,-4.208,-4.2042,-4.2098,-4.2143,-4.2132,-4.2368,-4.2313,-4.2342,-4.2413,-4.2649,-4.2659,-4.2668,-4.2708,-4.2726,-4.2741,0,0,0,0,0,0,-4.1636,-4.1732,-4.1728,-4.1873,-4.1944,-4.2029,-4.21,-4.2098,-4.2181,-4.2174,-4.2204,-4.2224,-4.2354,-4.2397,-4.2333,-4.2556,-4.2503,-4.2519,-4.2524,-4.2541,-4.2554,-4.2541,-4.2296,0,0,0,0,0,-4.166,-4.1751,-4.1829,-4.1949,-4.1985,-4.2037,-4.2091,-4.2106,-4.2181,-4.221,-4.2265,-4.2338,-4.2428,-4.2487,-4.2574,-4.272,-4.274,-4.2784,-4.2797,-4.2808,-4.2821,-4.2901,-4.2921,-4.2705,-4.2705,-4.2705,0,0,-4.1708,-4.1772,-4.1828,-4.1957,-4.2014,-4.2107,-4.2062,-4.2163,-4.2232,-4.2225,-4.2351,-4.2394,-4.2477,-4.2615,-4.2679,-4.2654,-4.2885,-4.282,-4.2828,-4.2836,-4.2913,-4.2933,-4.2952,-4.2712,-4.2711,-4.271,0,0,-4.1844,-4.1902,-4.2008,-4.2066,-4.2153,-4.2187,-4.2212,-4.2298,-4.2326,-4.2453,-4.245,-4.2532,-4.2688,-4.2746,-4.2797,-4.2955,-4.2947,-4.2982,-4.3053,-4.313,-4.3147,-4.3162,-4.3218,-4.3238,-4.2996,-4.2996,-4.2996,0,-4.1894,-4.2035,-4.2063,-4.2164,-4.2221,-4.222,-4.2326,-4.2381,-4.2492,-4.2531,-4.2502,-4.2697,-4.2752,-4.2904,-4.2943,-4.2984,-4.3013,-4.2972,-4.3143,-4.3158,-4.3173,-4.3226,-4.3247,-4.2999,-4.2999,-4.2999,-4.2998,0,-4.2091,-4.2189,-4.2264,-4.2371,-4.2436,-4.254,-4.2582,-4.2645,-4.2654,-4.269,-4.2819,-4.2886,-4.2986,-4.3023,-4.3033,-4.3177,-4.3159,-4.3136,-4.3084,-4.3196,-4.3247,-4.3268,-4.3005,-4.3003,-4.3002,-4.3001,0,0,-4.225,-4.2371,-4.2398,-4.2447,-4.2542,-4.2618,-4.2721,-4.282,-4.2873,-4.2949,-4.3036,-4.3167,-4.3147,-4.3204,-4.322,-4.3288,-4.3408,-4.3257,-4.326,-4.3282,-4.3569,-4.3585,-4.3609,-4.3404,-4.3408,-4.3412,-4.3562,0,-4.2395,-4.2579,-4.2607,-4.2768,-4.2858,-4.2858,-4.2948,-4.3016,-4.3053,-4.3134,-4.3174,-4.3267,-4.3233,-4.3267,-4.3335,-4.3379,-4.3466,-4.3369,-4.3484,-4.3488,-4.3463,-4.3635,-4.3653,-4.3792,-4.3582,-4.3586,-4.3588,0,-4.2589,-4.2671,-4.2842,-4.2925,-4.2964,-4.3044,-4.3136,-4.3214,-4.3291,-4.3313,-4.3377,-4.3385,-4.3491,-4.3434,-4.3581,-4.3514,-4.3563,-4.3592,-4.3598,-4.3609,-4.3544,-4.365,-4.3837,-4.3857,-4.362,-4.3617,-4.3615,0,-4.2687,-4.284,-4.2962,-4.3003,-4.3103,-4.316,-4.3204,-4.3277,-4.3334,-4.3415,-4.3452,-4.3544,-4.3594,-4.3664,-4.3697,-4.3653,-4.3841,-4.3787,-4.3861,-4.386,-4.39,-4.3897,-4.4096,-4.3933,-4.3932,-4.3932,-4.3932,0,-4.2846,-4.295,-4.3007,-4.3082,-4.3198,-4.3229,-4.3343,-4.3385,-4.345,-4.3533,-4.3538,-4.3615,-4.3654,-4.3736,-4.3762,-4.3879,-4.3902,-4.3921,-4.3927,-4.3921,-4.3918,-4.3953,-4.3943,-4.3938,-4.3936,-4.3935,-4.3934,0,-4.2975,-4.3017,-4.315,-4.3234,-4.3257,-4.3339,-4.341,-4.3483,-4.3518,-4.3623,-4.3649,-4.3705,-4.3803,-4.3842,-4.3962,-4.3979,-4.4113,-4.4111,-4.4087,-4.4089,-4.416,-4.4152,-4.4388,-4.442,-4.4236,-4.4237,-4.4239,0,-4.3073,-4.3154,-4.3246,-4.3302,-4.3348,-4.3438,-4.3496,-4.3529,-4.359,-4.3683,-4.3744,-4.3842,-4.3921,-4.4077,-4.4128,-4.4219,-4.4219,-4.4296,-4.4233,-4.4224,-4.422,-4.4214,-4.4222,-4.4307,-4.4309,-4.431,-4.4311,0,-4.3243,-4.326,-4.3345,-4.3437,-4.3507,-4.3581,-4.3653,-4.3698,-4.3742,-4.381,-4.391,-4.3972,-4.4094,-4.419,-4.4284,-4.4329,-4.4328,-4.4331,-4.4353,-4.4347,-4.4329,-4.4339,-4.4118,-4.4325,-4.4324,-4.4323,-4.4322,-4.4321,-4.336,-4.343,-4.3506,-4.36,-4.3658,-4.3725,-4.3797,-4.3842,-4.3926,-4.4028,-4.4043,-4.415,-4.4224,-4.435,-4.4398,-4.4482,-4.4462,-4.4494,-4.4502,-4.4509,-4.4513,-4.4316,-4.4499,-4.4499,-4.4498,-4.4498,-4.4498,0,-4.3529,-4.3578,-4.3664,-4.3765,-4.3838,-4.3831,-4.391,-4.3972,-4.4067,-4.4136,-4.4214,-4.4329,-4.4423,-4.4481,-4.4575,-4.4631,-4.4632,-4.4654,-4.465,-4.466,-4.4526,-4.4497,-4.4651,-4.4651,-4.4651,-4.4651,-4.4651,-4.4651,-4.3626,-4.3745,-4.3771,-4.3918,-4.3967,-4.4072,-4.4117,-4.4179,-4.4235,-4.4362,-4.444,-4.4478,-4.4543,-4.4642,-4.4727,-4.4742,-4.4776,-4.4799,-4.4812,-4.4686,-4.467,-4.4654,-4.4628,-4.4806,-4.4807,-4.4939,-4.4941,-4.4941]}]]